sat.trackr.live / text

‹ back to catalog

RAWHIDE-1

NORAD 68629 · 2026-074C

PAYLOAD ACTIVE UNKNOWN

§ Identity

Operator
Country
US
Launch date
2026-04-07
Launch site
AFWTR
Launch vehicle
Mass (kg)
RCS (m²)

External: N2YO · Heavens-Above · Gunter

§ Orbital elements

Epoch: 2026-05-24T16:37:11.392608Z

Period
94.46 min
Inclination
60.0211°
Eccentricity
0.0025200
Mean motion
15.24405116 rev/d
Perigee alt
475.3 km
Apogee alt
509.9 km
Semi-major
6,870.7 km
B*
3.5757e-4
RAAN
268.3440°
Arg perigee
3.5713°
Mean anomaly
356.5543°
Rev number
720

§ Raw data

RAWHIDE-11 68629U 26074C   26144.69249297  .00008634  00000+0  35757-3 0  99952 68629  60.0211 268.3440 0025200   3.5713 356.5543 15.24405116  7207

JSON: /api/v1/satellites/68629 · /tle

For live sub-satellite position, see the globe view (requires WebGL).

§ Visibility from observer

Set your observer location to see the next 7 days of passes ≥ 10°. The values pass through the URL so the page stays shareable.

No JS? Fill the form by hand. The geolocation button needs JavaScript.